Location: Huesca
(42.1318°N, 0.4078°W)
Time: 18:10:01
(UTC+02:00)

ITAMSAT 1 - Pass Details

Date: 02 May 2024
Orbit: 781 x 796 km, 98.8° (Epoch: 27 May)

Event Time Altitude Azimuth Distance (km) Brightness Sun altitude
Exits shadow 22:36:43 14° 174° (S) 2,107 9.5 -15.8°
Maximum altitude 22:41:16 70° 258° (WSW) 845 7.9 -16.5°
Drops below altitude 10° 22:46:30 10° 342° (NNW) 2,370 11.0 -17.2°
Sets 22:48:51 0° 344° (NNW) 3,302 11.9 -17.5°
